Regional Weather Roundup
Issued by NWS

Home | Current Version | Previous Version | Graphics & Text | Print | Product List | Glossary On
Versions: 1 2 3 4 5 6 7 8 9 10 11 12 13 14 15 16 17 18 19 20 21 22 23 24 25 26 27 28 29 30 31 32 33 34 35 36 37 38 39 40 41 42 43 44 45 46 47 48 49 50
000
ASUS45 KCYS 240610
RWRWY

WYOMING REGIONAL WEATHER ROUNDUP
NATIONAL WEATHER SERVICE CHEYENNE WY
1200 AM MDT SUN MAY 24 2015

NOTE:  "FAIR" INDICATES FEW OR NO CLOUDS BELOW 12,000 FEET
WITH NO SIGNIFICANT WEATHER AND/OR OBSTRUCTIONS TO VISIBILITY.

WYZ001-240700-
YELLOWSTONE NATIONAL PARK

CITY           SKY/WX    TMP DP  RH WIND       PRES   REMARKS
LK YELLOWSTONE   N/A     40  33  76 VRB5      30.11S
6HR MIN TEMP:  39; 6HR MAX TEMP:  46; 6HR PCP:  0.02;

W YELLOWSTONE  NOT AVBL

$$
WYZ002>013-054>058-071-098>099-240700-
NORTHERN WYOMING

CITY           SKY/WX    TMP DP  RH WIND       PRES   REMARKS
JACKSON        CLOUDY    43  41  93 N9        30.03S
CODY           CLOUDY    48  43  81 NW14      30.05F
GREYBULL       CLOUDY    52  49  89 NE3       29.99S
6HR MIN TEMP:  52; 6HR MAX TEMP:  65; 6HR PCP:  0.02;

WORLAND        CLOUDY    50  48  93 CALM      29.99F
6HR MIN TEMP:  50; 6HR MAX TEMP:  59; 6HR PCP:  0.15;

SHERIDAN       CLOUDY    50  47  89 W6        30.05S
6HR MIN TEMP:  49; 6HR MAX TEMP:  53;

BUFFALO        CLOUDY    48  46  93 NW6       30.06F
6HR MIN TEMP:  48; 6HR MAX TEMP:  51; 6HR PCP: TRACE;

GILLETTE       CLOUDY    50  47  89 N7        30.01F
6HR MIN TEMP:  50; 6HR MAX TEMP:  55;

HULETT         CLOUDY    50  48  93 NE8       30.04F FOG
NEWCASTLE      DRIZZLE   50  50 100 CALM      30.00F

$$
WYZ014>020-022>026-101>103-240700-
CENTRAL WYOMING

CITY           SKY/WX    TMP DP  RH WIND       PRES   REMARKS
BIG PINEY      CLOUDY    41  39  93 NW3       30.03S
6HR MIN TEMP:  40; 6HR MAX TEMP:  49; 6HR PCP: TRACE;

PINEDALE       CLOUDY    41  41 100 CALM      30.03S
DUBOIS         CLOUDY    39  36  87 CALM      30.06S
LANDER         LGT RAIN  45  43  93 W7        30.00F
6HR MIN TEMP:  45; 6HR MAX TEMP:  51; 6HR PCP:  0.11;

RIVERTON       LGT RAIN  47  44  90 NW12      30.02F
CASPER         LGT RAIN  46  44  93 N12       29.98F
6HR MIN TEMP:  45; 6HR MAX TEMP:  59; 6HR PCP:  0.51;

DOUGLAS        LGT RAIN  47  46  97 W6        29.97S
6HR MIN TEMP:  47; 6HR MAX TEMP:  55; 6HR PCP:  0.47;


$$
WYZ021-027>030-104>119-240700-
SOUTHERN WYOMING

CITY           SKY/WX    TMP DP  RH WIND       PRES   REMARKS
EVANSTON       FAIR      39  35  86 S6        30.02F WCI  35
6HR MIN TEMP:  39; 6HR MAX TEMP:  48;

KEMMERER       CLOUDY    41  36  81 NE6       30.03S
FORT BRIDGER   CLOUDY    43  39  87 S7        30.05R
ROCK SPRINGS   CLOUDY    42  37  82 NE12      30.00S
6HR MIN TEMP:  42; 6HR MAX TEMP:  54;

DIXON          CLOUDY    44  38  78 NE3       30.01F
RAWLINS        LGT RAIN  40  35  83 NW7       30.00F
6HR MIN TEMP:  39; 6HR MAX TEMP:  46; 6HR PCP:  0.24;

SARATOGA       LGT RAIN  39  37  93 CALM      30.01F
LARAMIE        CLOUDY    39  50 100 N5        29.97F
6HR MIN TEMP:  39; 6HR MAX TEMP:  49; 6HR PCP:  0.07;

CHEYENNE       CLOUDY    46  44  93 SW8       29.96S
6HR MIN TEMP:  45; 6HR MAX TEMP:  48;

TORRINGTON     LGT RAIN  52  52 100 S5        29.92S
6HR MIN TEMP:  52; 6HR MAX TEMP:  54; 6HR PCP:  0.33;

PINE BLUFFS    CLOUDY    45  45 100 SW3       29.95S

$$



USA.gov is the U.S. government's official web portal to all federal, state and local government web resources and services.